timestamp,wind_dir_avg,wind_spd_avg,wind_spd_max_dir,wind_spd_gust,battery_voltage,lat,long
2022-07-19 00:04:00+00:00,211.0,10.19,210.0,11.08,12.81,47.59359,-54.27349
2022-07-19 00:14:00+00:00,215.0,9.68,213.0,10.74,12.41,47.59359,-54.27349
2022-07-19 00:24:00+00:00,211.0,10.85,212.0,12.08,12.41,47.59359,-54.27349
2022-07-19 00:34:00+00:00,212.0,9.81,212.0,10.85,12.41,47.59359,-54.27349
2022-07-19 00:44:00+00:00,206.0,9.32,210.0,10.29,12.41,47.59359,-54.27349
2022-07-19 00:54:00+00:00,206.0,7.94,209.0,8.74,12.41,47.59359,-54.27349
2022-07-19 01:04:00+00:00,209.0,12.72,208.0,13.88,12.41,47.59359,-54.27349
2022-07-19 01:14:01+00:00,206.0,8.98,207.0,10.23,12.41,47.59359,-54.27349
2022-07-19 01:24:01+00:00,205.0,8.86,209.0,9.72,12.41,47.59359,-54.27349
2022-07-19 01:34:01+00:00,209.0,10.97,212.0,12.22,12.41,47.59359,-54.27349
2022-07-19 01:44:01+00:00,205.0,8.83,205.0,9.94,12.41,47.59359,-54.27349
2022-07-19 01:54:01+00:00,208.0,6.94,209.0,7.76,12.41,47.59359,-54.27349
2022-07-19 02:04:01+00:00,216.0,9.74,215.0,11.39,12.41,47.59359,-54.27349
2022-07-19 02:14:00+00:00,215.0,10.73,218.0,12.43,12.41,47.59359,-54.27349
2022-07-19 02:24:00+00:00,208.0,10.42,213.0,11.13,12.41,47.59359,-54.27349
2022-07-19 02:34:00+00:00,208.0,9.63,207.0,11.4,12.41,47.59359,-54.27349
2022-07-19 02:44:00+00:00,213.0,9.94,214.0,10.93,12.41,47.59359,-54.27349
2022-07-19 02:54:00+00:00,215.0,8.28,218.0,8.93,12.41,47.59359,-54.27349
2022-07-19 03:04:00+00:00,216.0,10.25,220.0,11.53,12.41,47.59359,-54.27349
2022-07-19 03:14:01+00:00,218.0,8.76,221.0,10.01,12.41,47.59359,-54.27349
2022-07-19 03:24:01+00:00,220.0,9.17,218.0,10.63,12.41,47.59359,-54.27349
2022-07-19 03:34:01+00:00,218.0,9.98,217.0,10.87,12.41,47.59359,-54.27349
2022-07-19 03:44:01+00:00,218.0,8.58,219.0,9.4,12.41,47.59359,-54.27349
2022-07-19 03:54:01+00:00,218.0,8.67,220.0,9.91,12.41,47.59359,-54.27349
2022-07-19 04:04:01+00:00,223.0,8.18,219.0,10.03,12.41,47.59359,-54.27349
2022-07-19 04:14:00+00:00,215.0,7.28,214.0,8.01,12.41,47.59359,-54.27349
2022-07-19 04:24:00+00:00,216.0,7.94,219.0,9.03,12.41,47.59359,-54.27349
2022-07-19 04:34:00+00:00,213.0,7.72,212.0,8.41,12.41,47.59359,-54.27349
2022-07-19 04:44:00+00:00,214.0,8.32,213.0,9.16,12.41,47.59359,-54.27349
2022-07-19 04:54:00+00:00,217.0,7.96,220.0,9.21,12.41,47.59359,-54.27349
2022-07-19 05:04:00+00:00,224.0,8.37,221.0,9.68,12.41,47.59359,-54.27349
2022-07-19 05:14:01+00:00,224.0,8.69,224.0,9.45,12.33,47.59359,-54.27349
2022-07-19 05:24:01+00:00,218.0,7.3,222.0,8.14,12.33,47.59359,-54.27349
2022-07-19 05:34:01+00:00,219.0,7.83,220.0,9.0,12.33,47.59359,-54.27349
2022-07-19 05:44:01+00:00,219.0,9.23,220.0,10.42,12.33,47.59359,-54.27349
2022-07-19 05:54:01+00:00,211.0,9.34,213.0,10.4,12.33,47.59359,-54.27349
2022-07-19 06:04:01+00:00,211.0,8.09,210.0,9.42,12.33,47.59359,-54.27349
2022-07-19 06:14:00+00:00,212.0,8.31,213.0,10.38,12.33,47.59359,-54.27349
2022-07-19 06:24:00+00:00,213.0,9.24,213.0,10.29,12.33,47.59359,-54.27349
2022-07-19 06:34:00+00:00,211.0,9.07,211.0,10.4,12.33,47.59359,-54.27349
2022-07-19 06:44:00+00:00,210.0,8.34,208.0,9.7,12.33,47.59359,-54.27349
2022-07-19 06:54:00+00:00,209.0,8.96,215.0,10.65,12.33,47.59359,-54.27349
2022-07-19 07:04:00+00:00,216.0,8.15,217.0,8.73,12.33,47.59359,-54.27349
2022-07-19 07:14:00+00:00,216.0,7.68,216.0,8.69,12.25,47.59359,-54.27349
2022-07-19 07:24:00+00:00,217.0,6.72,218.0,7.96,12.25,47.59359,-54.27349
2022-07-19 07:34:00+00:00,204.0,7.23,203.0,8.06,12.25,47.59359,-54.27349
2022-07-19 07:44:00+00:00,210.0,8.79,211.0,9.72,12.25,47.59359,-54.27349
2022-07-19 07:54:00+00:00,208.0,7.38,206.0,8.25,12.25,47.59359,-54.27349
2022-07-19 08:04:00+00:00,207.0,7.27,225.0,9.18,12.25,47.59359,-54.27349
2022-07-19 08:14:01+00:00,211.0,7.59,220.0,8.76,12.17,47.59359,-54.27349
2022-07-19 08:24:01+00:00,222.0,8.22,219.0,9.66,12.17,47.59359,-54.27349
2022-07-19 08:34:01+00:00,221.0,8.26,221.0,9.43,12.17,47.59359,-54.27349
2022-07-19 08:44:01+00:00,218.0,7.86,215.0,8.78,12.17,47.59359,-54.27349
2022-07-19 08:54:01+00:00,217.0,7.4,219.0,8.32,12.17,47.59359,-54.27349
2022-07-19 09:04:01+00:00,218.0,7.69,221.0,8.47,12.17,47.59359,-54.27349
2022-07-19 09:14:00+00:00,217.0,7.74,221.0,9.05,12.17,47.59359,-54.27349
2022-07-19 09:24:00+00:00,218.0,7.32,219.0,8.65,12.17,47.59359,-54.27349
2022-07-19 09:34:00+00:00,222.0,6.67,222.0,7.73,12.17,47.59359,-54.27349
2022-07-19 09:44:00+00:00,214.0,6.43,216.0,7.39,12.17,47.59359,-54.27349
2022-07-19 09:54:00+00:00,216.0,5.73,237.0,6.84,12.17,47.59359,-54.27349
2022-07-19 10:04:00+00:00,211.0,5.06,215.0,5.95,12.17,47.59359,-54.27349
2022-07-19 10:14:00+00:00,221.0,5.04,237.0,6.34,12.41,47.59359,-54.27349
2022-07-19 10:24:00+00:00,205.0,5.17,208.0,5.63,12.41,47.59359,-54.27349
2022-07-19 10:34:00+00:00,224.0,4.21,224.0,4.68,12.41,47.59359,-54.27349
2022-07-19 10:44:00+00:00,219.0,4.3,213.0,5.03,12.41,47.59359,-54.27349
2022-07-19 10:54:00+00:00,203.0,6.49,205.0,6.85,12.41,47.59359,-54.27349
2022-07-19 11:04:00+00:00,208.0,6.76,210.0,7.24,12.41,47.59359,-54.27349
2022-07-19 11:14:00+00:00,214.0,7.1,215.0,7.68,13.05,47.59359,-54.27349
2022-07-19 11:24:00+00:00,229.0,5.92,231.0,6.6,13.05,47.59359,-54.27349
2022-07-19 11:34:00+00:00,226.0,6.57,222.0,7.59,13.05,47.59359,-54.27349
2022-07-19 11:44:00+00:00,198.0,6.07,196.0,6.87,13.05,47.59359,-54.27349
2022-07-19 11:54:00+00:00,197.0,3.34,200.0,4.42,13.05,47.59359,-54.27349
2022-07-19 12:04:00+00:00,184.0,5.7,185.0,6.29,13.05,47.59359,-54.27349
2022-07-19 12:14:01+00:00,183.0,5.97,185.0,6.49,12.89,47.59359,-54.27349
2022-07-19 12:24:01+00:00,197.0,5.92,198.0,6.6,12.89,47.59359,-54.27349
2022-07-19 12:34:01+00:00,203.0,6.4,209.0,7.05,12.89,47.59359,-54.27349
2022-07-19 12:44:01+00:00,208.0,6.46,212.0,7.02,12.89,47.59359,-54.27349
2022-07-19 12:54:01+00:00,199.0,6.68,200.0,7.38,12.89,47.59359,-54.27349
2022-07-19 13:04:01+00:00,192.0,6.63,196.0,7.49,12.89,47.59359,-54.27349
2022-07-19 13:14:00+00:00,196.0,7.04,198.0,7.81,13.37,47.59359,-54.27349
2022-07-19 13:24:00+00:00,199.0,7.5,200.0,8.72,13.37,47.59359,-54.27349
2022-07-19 13:34:00+00:00,205.0,8.2,205.0,9.06,13.37,47.59359,-54.27349
2022-07-19 13:44:00+00:00,208.0,8.04,208.0,8.83,13.37,47.59359,-54.27349
2022-07-19 13:54:00+00:00,208.0,8.16,206.0,9.07,13.37,47.59359,-54.27349
2022-07-19 14:04:00+00:00,208.0,8.12,208.0,9.18,13.37,47.59359,-54.27349
2022-07-19 14:14:00+00:00,210.0,7.97,210.0,9.01,13.6,47.59359,-54.27349
2022-07-19 14:24:00+00:00,210.0,8.2,207.0,8.9,13.6,47.59359,-54.27349
2022-07-19 14:34:00+00:00,208.0,7.53,210.0,8.38,13.6,47.59359,-54.27349
2022-07-19 14:44:00+00:00,208.0,7.28,206.0,7.86,13.6,47.59359,-54.27349
2022-07-19 14:54:00+00:00,206.0,7.32,207.0,7.99,13.6,47.59359,-54.27349
2022-07-19 15:04:00+00:00,205.0,7.73,211.0,8.83,13.6,47.59359,-54.27349
2022-07-19 15:14:01+00:00,204.0,8.24,203.0,9.46,13.68,47.59359,-54.27349
2022-07-19 15:24:01+00:00,206.0,9.08,208.0,10.91,13.68,47.59359,-54.27349
2022-07-19 15:34:01+00:00,204.0,9.4,206.0,10.35,13.68,47.59359,-54.27349
2022-07-19 15:44:01+00:00,204.0,9.11,200.0,9.99,13.68,47.59359,-54.27349
2022-07-19 15:54:01+00:00,209.0,8.87,205.0,10.14,13.68,47.59359,-54.27349
2022-07-19 16:04:01+00:00,210.0,7.5,209.0,8.41,13.68,47.59359,-54.27349
2022-07-19 16:14:00+00:00,204.0,6.45,207.0,7.12,13.53,47.59359,-54.27349
2022-07-19 16:24:00+00:00,196.0,6.35,195.0,7.13,13.53,47.59359,-54.27349
2022-07-19 16:34:00+00:00,197.0,6.67,200.0,7.52,13.53,47.59359,-54.27349
2022-07-19 16:44:00+00:00,201.0,6.99,202.0,8.17,13.53,47.59359,-54.27349
2022-07-19 16:54:00+00:00,208.0,8.5,209.0,9.72,13.53,47.59359,-54.27349
2022-07-19 17:04:00+00:00,209.0,8.46,211.0,9.91,13.53,47.59359,-54.27349
2022-07-19 17:14:01+00:00,207.0,8.13,216.0,9.4,13.68,47.59359,-54.27349
2022-07-19 17:24:01+00:00,213.0,9.21,215.0,10.82,13.68,47.59359,-54.27349
2022-07-19 17:34:01+00:00,215.0,9.66,216.0,11.19,13.68,47.59359,-54.27349
2022-07-19 17:44:01+00:00,217.0,9.66,214.0,11.01,13.68,47.59359,-54.27349
2022-07-19 17:54:01+00:00,215.0,7.84,220.0,9.48,13.68,47.59359,-54.27349
2022-07-19 18:04:01+00:00,213.0,9.87,213.0,10.95,13.68,47.59359,-54.27349
2022-07-19 18:14:00+00:00,209.0,7.11,216.0,8.62,13.29,47.59359,-54.27349
2022-07-19 18:24:00+00:00,211.0,5.63,221.0,7.05,13.29,47.59359,-54.27349
2022-07-19 18:34:00+00:00,207.0,6.44,211.0,7.19,13.29,47.59359,-54.27349
2022-07-19 18:44:00+00:00,205.0,6.32,209.0,7.5,13.29,47.59359,-54.27349
2022-07-19 18:54:00+00:00,203.0,6.98,203.0,7.9,13.29,47.59359,-54.27349
2022-07-19 19:04:00+00:00,210.0,6.87,216.0,8.54,13.29,47.59359,-54.27349
2022-07-19 19:14:00+00:00,204.0,6.56,204.0,7.66,13.29,47.59359,-54.27349
2022-07-19 19:24:00+00:00,201.0,6.53,203.0,7.13,13.29,47.59359,-54.27349
2022-07-19 19:34:00+00:00,197.0,5.79,198.0,6.3,13.29,47.59359,-54.27349
2022-07-19 19:44:00+00:00,213.0,5.14,217.0,5.82,13.29,47.59359,-54.27349
2022-07-19 19:54:00+00:00,212.0,4.91,220.0,5.95,13.29,47.59359,-54.27349
2022-07-19 20:04:00+00:00,201.0,3.56,195.0,4.12,13.29,47.59359,-54.27349
2022-07-19 20:14:01+00:00,206.0,3.54,223.0,4.64,13.05,47.59359,-54.27349
2022-07-19 20:24:01+00:00,225.0,2.43,236.0,3.36,13.05,47.59359,-54.27349
2022-07-19 20:34:01+00:00,177.0,1.55,182.0,2.23,13.05,47.59359,-54.27349
2022-07-19 20:44:01+00:00,237.0,1.51,243.0,1.88,13.05,47.59359,-54.27349
2022-07-19 20:54:01+00:00,221.0,0.91,228.0,1.22,13.05,47.59359,-54.27349
2022-07-19 21:04:01+00:00,124.0,3.15,105.0,5.89,13.05,47.59359,-54.27349
2022-07-19 21:14:00+00:00,176.0,4.84,177.0,5.52,12.57,47.59359,-54.27349
2022-07-19 21:24:00+00:00,162.0,6.94,165.0,8.25,12.57,47.59359,-54.27349
2022-07-19 21:34:00+00:00,156.0,6.06,155.0,6.87,12.57,47.59359,-54.27349
2022-07-19 21:44:00+00:00,158.0,6.47,158.0,7.01,12.57,47.59359,-54.27349
2022-07-19 21:54:00+00:00,162.0,8.18,161.0,9.31,12.57,47.59359,-54.27349
2022-07-19 22:04:00+00:00,164.0,8.7,164.0,9.66,12.57,47.59359,-54.27349
2022-07-19 22:14:00+00:00,162.0,8.58,159.0,9.43,12.41,47.59359,-54.27349
2022-07-19 22:24:00+00:00,165.0,8.4,168.0,9.77,12.41,47.59359,-54.27349
2022-07-19 22:34:00+00:00,159.0,8.11,150.0,10.17,12.41,47.59359,-54.27349
2022-07-19 22:44:00+00:00,164.0,8.84,164.0,10.28,12.41,47.59359,-54.27349
2022-07-19 22:54:00+00:00,148.0,6.74,148.0,7.74,12.41,47.59359,-54.27349
2022-07-19 23:04:00+00:00,156.0,5.8,158.0,6.43,12.41,47.59359,-54.27349
2022-07-19 23:14:00+00:00,141.0,7.38,143.0,8.11,12.41,47.59359,-54.27349
2022-07-19 23:24:00+00:00,147.0,6.74,151.0,7.53,12.41,47.59359,-54.27349
2022-07-19 23:34:00+00:00,142.0,8.41,140.0,9.85,12.41,47.59359,-54.27349
2022-07-19 23:44:00+00:00,169.0,4.87,166.0,5.49,12.41,47.59359,-54.27349
2022-07-19 23:54:00+00:00,162.0,7.19,168.0,8.24,12.41,47.59359,-54.27349
